This is the latest recevied weather packets stored in our database for station/object EA1FBN. If no packets are shown the sender has not sent any weather packets the latest 10 day(s).
| Time | Temp. | Humidity | Pressure | Rain* | Wind** | Luminosity | Snow |
|---|---|---|---|---|---|---|---|
| 1787572537 | 22.78° C | 50% | 1010 hPa | 0 mm | - | - | - |
| 1787571937 | 22.22° C | 52% | 1010.1 hPa | 0 mm | - | - | - |
| 1787571637 | 22.78° C | 51% | 1010.3 hPa | 0 mm | - | - | - |
| 1787571038 | 22.78° C | 51% | 1010.1 hPa | 0 mm | - | - | - |
| 1787570738 | 22.78° C | 51% | 1010.3 hPa | 0 mm | - | - | - |
| 1787570138 | 22.78° C | 53% | 1010.2 hPa | 0 mm | - | - | - |
| 1787569838 | 22.78° C | 53% | 1010.2 hPa | 0 mm | - | - | - |
| 1787569238 | 22.78° C | 54% | 1010.3 hPa | 0 mm | - | - | - |
| 1787568938 | 22.78° C | 52% | 1010.4 hPa | 0 mm | - | - | - |
| 1787568338 | 22.22° C | 52% | 1010.4 hPa | 0 mm | - | - | - |
| 1787568038 | 22.22° C | 52% | 1010.4 hPa | 0 mm | - | - | - |
| 1787567438 | 22.22° C | 52% | 1010.4 hPa | 0 mm | - | - | - |
| 1787567138 | 21.67° C | 53% | 1010.4 hPa | 0 mm | - | - | - |
| 1787566538 | 21.67° C | 58% | 1010.4 hPa | 0 mm | - | - | - |
| 1787566238 | 21.11° C | 59% | 1010.5 hPa | 0 mm | - | - | - |
| 1787565638 | 21.67° C | 57% | 1010.4 hPa | 0 mm | - | - | - |
| 1787565338 | 21.67° C | 57% | 1010.4 hPa | 0 mm | - | - | - |
| 1787564743 | 21.67° C | 60% | 1010.4 hPa | 0.25 mm | - | - | - |
| 1787564438 | 21.11° C | 63% | 1010.4 hPa | 0.25 mm | - | - | - |
| 1787563838 | 20.56° C | 62% | 1010.4 hPa | 0.25 mm | - | - | - |
| 1787563538 | 20.56° C | 63% | 1010.1 hPa | 0.25 mm | - | - | - |
| 1787562938 | 21.11° C | 63% | 1010.5 hPa | 0.51 mm | - | - | - |
| 1787562638 | 21.11° C | 62% | 1010.6 hPa | 0.51 mm | - | - | - |
| 1787562038 | 21.11° C | 62% | 1010.5 hPa | 0.51 mm | - | - | - |
| 1787561738 | 21.11° C | 63% | 1010.5 hPa | 0.51 mm | - | - | - |
* Rain latest hour (hover to see other rain measurements)
** Current wind speed in m/s (hover to see current wind gust speed)